Карточка аэропорта URSS

Внимание!
Информация на этой странице в стадии наполнения.
Если вы не увидели какой-то информации, или заметили неточность - пожалуйста сообщите нам!
Спасибо!
Команда RU-STAFF
Название аэропортаСочи
Название аэропорта (англ.)Sochi
Превышение89 ft. (27.1 m.)
Координаты43°26.634', 39°56.55'
Высота перехода13000 ft
Эшелон переходаQNH>=977hPa: FL150; QNH<977hPa: FL160
Коды ответчика1060-1077
Зона ОрВДРостов-на-Дону РПИ (URRV)
Данные METARURSS 170730Z 17004MPS 9999 NSC 26/02 Q1009 R06/010070 R02/////// NOSIG RMK R02/17004MPS QFE755
Проноз погоды (TAF)URSS 170756Z 1709/1809 16006G11MPS 9999 SCT100 BECMG 1715/1717 05004G09MPS BKN100 BECMG 1720/1721 04007MPS NSC TEMPO 1800/1805 23005G10MPS SCT006 BECMG 1805/1807 15008G14MPS BKN100
NOTAMshow/hide NOTAM
AWOS   TABLE

Информация о ВПП

ВПП Длина ВПП (м.) Покрытие Курс ВПП Частота ILS
022500Цементобетон22110.5
062890Цементобетон58111.1
202500Цементобетон202 
242890Цементобетон238 

Диспетчерские позиции

Позывной Наименование органа УВД Частота
URSS_TWRСочи-Старт121.200
URSS_GNDСочи-Руление119.000
URSS_APPСочи-Подход124.600
URSS_R_APPСочи-Круг119.700
URSS_DELСочи-Деливери132.700
URSSFM1119.000



Спутниковое изображение